User: anonymous   Login
Location: Detroit
(42.3310°N, 83.0460°W)
Time: 16:56:12
(UTC-05:00)
Language:

Tiros 1 despin weight - Orbit

View from above orbital plane
View from above orbital plane
View from above satellite
View from above satellite

Ground track
Ground track

The orbit data is extracted from the following two-line orbital elements,

1   115U 60002D   24051.33216760  .00004008  00000-0  44842-3 0  9992
2   115  48.1638 284.0857 0031242  60.4578 299.9445 14.88396881412538
Epoch (UTC): 20 February 2024 07:58:19
Eccentricity: 0.0031242
inclination: 48.1638°
perigee height: 581 km
apogee height: 625 km
right ascension of ascending node: 284.0857°
argument of perigee: 60.4578°
revolutions per day: 14.88396881
mean anomaly at epoch: 299.9445°
orbit number at epoch: 41253

The dashed part of the orbit path shows where the satellite is in the earth's shadow,  

DLR